Regional Weather Roundup
Issued by NWS

Home | Current Version | Previous Version | Graphics & Text | Print | Product List | Glossary On
Versions: 1 2 3 4 5 6 7 8 9 10 11 12 13 14 15 16 17 18 19 20 21 22 23 24 25 26 27 28 29 30 31 32 33 34 35 36 37 38 39 40 41 42 43 44 45 46 47 48 49 50
378
ASUS43 KFSD 281602
RWRSD

WEATHER ROUNDUP FOR SOUTH DAKOTA
NATIONAL WEATHER SERVICE SIOUX FALLS SD
1100 AM CDT SUN AUG 28 2016

NOTE: "FAIR" INDICATES FEW OR NO CLOUDS BELOW 12,000 FEET WITH NO
SIGNIFICANT WEATHER AND/OR OBSTRUCTIONS TO VISIBILITY.


SDZ001>005-009-010-012>017-281700-
NORTHWEST AND NORTH CENTRAL SOUTH DAKOTA

CITY           SKY/WX    TMP DP  RH WIND       PRES   REMARKS
BUFFALO          N/A     77  53  43 W6        29.90R
FAITH            N/A     79  56  45 NE5       29.93S
MOBRIDGE       SUNNY     79  64  60 S10       29.89S
$$

SDZ012>016-024>037-041>051-057-063-072>074-281700-
SOUTHWEST AND SOUTH CENTRAL SOUTH DAKOTA

CITY           SKY/WX    TMP DP  RH WIND       PRES   REMARKS
RAPID CTY ARPT SUNNY     78  55  44 SE3       29.98R
PIERRE         SUNNY     80  66  62 SE13      29.91F
CUSTER         SUNNY     76  32  20 VRB5      30.14R
ELLSWORTH AFB  SUNNY    N/A N/A N/A E1          N/A
PHILIP         SUNNY     80  59  48 W13       29.93S
PINE RIDGE     SUNNY     79  54  41 SW7       30.02S
WINNER         FAIR      84  67  56 S15       29.99S
$$

SDZ004>011-016>023-039-040-281700-
NORTHEAST SOUTH DAKOTA

CITY           SKY/WX    TMP DP  RH WIND       PRES   REMARKS
ABERDEEN       SUNNY     80  67  64 S16       29.95F
WATERTOWN      SUNNY     77  68  73 SE18G24   30.04S
BROOKINGS      SUNNY     76  69  79 SE12      30.07S
$$

SDZ017-020-022-023-036>040-048>070-281700-
SOUTHEAST SOUTH DAKOTA

CITY           SKY/WX    TMP DP  RH WIND       PRES   REMARKS
SIOUX FALLS    MOSUNNY   79  72  79 S13       30.08R
HURON          SUNNY     79  68  69 S17       29.98S
CHAMBERLAIN    SUNNY     83  70  63 S13       29.98S
MITCHELL       SUNNY     80  69  69 S15       30.01S
YANKTON        SUNNY     81  70  69 SE14      30.03S
$$

ABBREVIATIONS USED IN REMARKS
   TC - TEMPERATURE IN CELSIUS
  WCI - WIND CHILL INDEX
   HX - HEAT INDEX
  VSB - VISIBILITY





USA.gov is the U.S. government's official web portal to all federal, state and local government web resources and services.